Wind_Speed
31 33 33 34 36 33 30 29 31 35 39 41 44 46 48 50 50 50 50 50 49 48 47 46 45 44 44 44 43 42 42 42 43 45 47 49 49 50 50 49 49 48 47 46 44 43 42 40 38 36 34 33 31 30 28 27 26 25 24 24 23 24 24 23 23 20 17 17 18 17 19 21 19 17 18 19 18 18 19 21 23 25 26 28 29
26 30 33 33 34 34 34 35 36 37 39 42 45 47 49 51 52 52 52 52 52 51 50 48 47 46 46 46 45 43 42 42 43 44 46 48 50 51 51 51 51 50 49 48 46 45 43 41 39 37 35 34 32 31 29 28 27 26 25 25 24 25 25 24 24 22 18 16 18 19 19 21 20 18 19 21 21 20 20 20 22 24 25 26 28
20 23 27 30 31 32 35 37 38 39 41 44 46 47 48 50 53 54 54 54 54 53 52 50 49 49 49 48 47 46 44 43 43 45 46 47 49 50 52 52 52 52 51 49 48 46 45 43 41 39 37 36 34 32 31 30 28 27 26 26 25 25 25 24 24 23 20 17 18 20 20 21 21 20 20 22 24 23 22 22 23 24 25 26 28
20 20 23 26 28 31 34 36 38 41 43 44 45 46 47 49 51 54 54 54 55 55 55 53 52 51 51 51 50 48 46 45 45 46 47 47 48 50 51 52 52 52 51 50 49 48 47 45 43 41 39 37 35 34 33 31 30 29 28 27 26 25 25 24 24 23 23 20 18 19 21 22 22 22 22 23 25 26 26 25 26 26 27 28 30
23 23 24 26 27 28 30 32 36 39 41 42 42 43 45 47 49 53 55 55 55 55 56 55 55 55 55 54 52 51 49 48 47 47 47 48 48 49 50 51 52 52 52 51 50 49 48 46 44 42 41 39 37 36 34 33 31 30 29 27 26 25 24 24 24 24 24 22 20 19 20 22 22 22 22 23 25 26 27 28 29 30 31 32 32
26 26 27 28 29 30 30 31 33 35 36 38 38 39 43 45 47 50 54 55 55 55 56 56 56 57 57 56 54 53 52 50 49 48 47 48 48 49 49 50 51 52 52 51 50 50 49 47 45 44 42 41 39 37 35 33 32 30 29 28 27 25 24 24 24 24 24 23 21 20 20 21 21 22 22 23 25 27 29 30 30 30 32 34 35
28 28 28 29 31 32 33 33 33 32 32 33 35 37 39 42 45 47 50 53 54 55 56 56 56 57 58 57 56 55 54 52 50 49 48 48 48 49 49 50 51 52 52 52 51 51 50 49 47 46 44 42 39 37 35 34 32 31 30 29 27 26 25 25 24 24 23 23 22 21 20 20 20 22 23 23 26 27 29 32 32 32 32 34 35
31 30 29 29 29 30 32 33 33 32 32 32 33 35 37 39 42 44 47 51 53 54 55 55 55 55 56 57 57 56 55 53 52 51 50 50 50 50 50 50 51 52 53 53 52 52 51 50 48 46 44 42 40 38 36 34 32 31 30 29 28 27 26 25 24 23 23 22 22 22 21 20 20 22 24 25 26 27 28 30 33 34 34 35 35
34 34 33 32 30 28 28 31 32 32 31 31 31 34 36 38 40 43 45 48 51 53 53 54 54 54 55 56 56 55 55 55 54 53 52 51 51 51 51 51 52 52 53 53 54 53 52 50 49 47 45 42 40 38 36 34 33 31 30 29 29 28 26 24 23 22 22 23 22 21 21 20 20 22 24 25 26 27 27 29 32 34 35 37 37
34 34 35 35 34 32 29 28 29 30 30 29 29 30 32 35 38 41 43 46 49 51 52 52 53 53 53 55 55 55 56 56 55 54 53 52 51 51 52 53 53 53 54 55 55 54 53 52 50 48 45 43 41 39 37 36 34 32 31 30 30 29 26 24 23 22 23 24 23 21 21 21 21 22 24 25 25 25 26 28 32 34 36 39 40
35 34 34 34 34 33 33 30 28 28 27 27 27 27 30 33 36 39 42 44 47 49 50 52 52 51 51 53 54 55 56 56 55 54 54 53 52 51 52 52 53 54 55 56 56 55 54 53 51 49 46 45 43 41 39 37 35 34 33 32 31 29 26 24 23 22 24 24 23 21 21 21 21 22 23 24 24 25 26 27 31 33 35 38 41
36 35 34 34 34 33 33 33 32 30 28 26 26 26 28 31 34 37 40 42 44 47 49 51 52 50 49 51 53 54 55 55 55 54 54 53 52 52 52 52 53 54 56 57 56 56 55 54 52 50 49 47 45 42 40 38 37 35 34 32 31 28 26 24 23 24 25 24 22 20 20 22 22 21 22 23 23 24 25 27 29 32 34 36 39
37 36 35 35 35 35 34 34 34 34 32 29 27 26 27 30 32 34 37 39 43 46 48 50 50 50 49 50 51 52 53 54 54 53 53 52 52 52 52 53 54 54 55 56 57 57 56 55 54 52 50 48 46 43 41 40 38 36 34 33 31 28 25 24 24 25 25 23 21 19 19 21 21 20 21 22 23 24 25 27 28 30 33 34 37
39 38 37 36 36 36 36 36 35 34 34 33 31 28 27 28 30 31 34 37 41 45 47 48 49 49 49 49 50 50 51 52 52 52 51 51 51 51 52 54 54 55 56 56 56 57 56 56 55 53 51 49 46 44 42 41 39 37 35 33 31 27 25 24 25 24 23 21 20 18 18 20 21 20 20 20 21 23 24 26 28 30 32 34 36
42 41 40 39 39 38 38 38 36 35 34 34 34 32 29 28 29 30 32 35 38 41 44 46 47 47 47 48 48 49 50 50 51 51 50 50 50 51 52 54 55 56 56 56 56 56 56 56 55 53 51 49 47 44 42 41 39 37 35 33 30 27 25 25 24 22 20 19 19 18 18 19 20 20 19 19 20 21 22 25 27 29 32 34 36
42 42 42 41 41 40 40 40 39 37 35 35 34 34 32 29 28 29 30 33 36 38 41 43 45 45 45 46 47 48 49 49 49 49 49 49 49 50 52 54 56 57 57 56 56 56 56 56 54 52 50 48 46 43 41 40 38 37 35 32 29 26 25 25 23 21 19 19 19 19 18 18 18 18 17 18 19 21 23 24 24 26 31 35 36
41 41 41 41 41 40 40 40 41 41 39 37 35 34 33 31 29 27 28 31 33 36 39 40 42 43 44 45 46 47 48 48 47 47 48 48 48 50 52 54 56 57 57 57 56 55 55 54 53 51 49 47 44 41 40 39 38 36 34 32 29 27 26 24 22 21 20 19 19 19 18 16 16 16 16 16 18 20 23 24 23 25 30 34 37
41 41 41 41 40 40 39 39 40 41 41 40 38 36 35 33 31 28 28 29 31 32 35 37 39 41 42 44 45 45 46 46 46 46 47 46 47 50 52 54 56 57 57 56 55 54 53 53 52 50 48 45 43 41 40 40 39 37 35 32 30 29 26 24 23 22 20 19 19 19 16 15 16 16 15 16 17 19 21 23 24 26 29 32 35
40 41 42 42 41 41 40 39 39 39 40 41 40 39 37 35 33 31 29 29 30 31 33 35 37 38 39 41 42 43 44 45 44 45 45 45 47 50 52 53 54 56 56 56 55 54 53 53 51 49 47 44 42 41 41 41 39 37 35 33 31 29 26 25 24 21 19 19 19 17 16 16 16 16 16 17 16 18 20 21 23 26 28 31 33
41 42 42 43 42 42 41 40 40 39 40 40 40 40 39 37 35 33 31 30 30 31 32 33 34 35 36 38 39 41 43 43 43 43 43 43 46 50 52 52 53 54 54 55 55 54 53 52 51 49 46 43 41 41 42 41 39 36 35 34 32 29 26 24 22 19 19 19 18 16 16 16 16 16 17 17 16 17 19 20 22 25 27 30 31
43 43 44 44 44 43 42 41 41 40 40 40 41 41 40 38 37 35 34 32 31 31 32 32 32 32 33 35 37 39 40 41 41 42 42 42 45 49 52 51 51 52 53 54 55 54 54 53 52 50 46 42 42 42 41 40 39 37 35 34 31 27 25 22 20 20 20 19 17 17 17 16 16 16 16 17 16 17 19 20 22 24 26 29 31
46 46 47 46 46 44 43 42 42 42 42 41 42 42 42 40 39 37 35 34 33 32 31 31 31 31 31 33 36 38 39 39 39 40 40 41 43 47 50 49 48 50 52 53 54 53 53 53 52 48 44 43 44 43 41 39 38 37 35 33 29 26 24 22 20 20 19 18 17 18 17 16 16 15 15 17 17 18 20 21 22 24 25 27 29
49 49 49 49 48 47 45 44 44 43 43 43 43 43 43 43 42 40 37 36 35 34 32 30 31 32 32 33 34 36 38 39 38 37 38 39 41 43 45 46 45 47 50 50 51 52 52 52 49 45 44 45 45 43 41 38 37 37 34 30 27 26 24 22 21 20 19 18 18 17 15 15 15 15 15 17 18 19 21 23 23 24 25 26 27
50 51 51 51 50 49 48 47 47 46 45 45 45 45 44 44 44 42 40 38 37 37 35 32 32 33 34 34 34 35 36 38 39 38 37 38 39 39 41 43 43 44 46 47 48 49 49 48 46 44 44 46 44 42 39 37 36 36 32 27 26 26 23 21 20 19 18 18 18 16 14 14 14 15 16 17 18 20 22 23 24 24 25 27 28
53 53 54 53 53 52 52 51 49 48 47 47 47 48 47 46 45 44 42 40 39 39 37 35 33 33 34 34 35 35 35 35 36 37 37 38 39 39 40 42 41 41 42 44 45 45 44 44 44 43 44 44 40 37 37 36 35 32 29 27 27 25 22 20 19 18 18 17 16 14 13 13 14 15 16 18 19 21 22 24 24 25 25 27 29
56 56 57 56 56 55 55 54 52 51 50 49 49 49 48 48 46 45 43 42 41 41 39 37 35 35 35 35 35 35 35 34 34 35 35 38 39 39 39 42 42 40 39 39 39 40 40 41 43 43 41 37 34 35 36 34 31 31 31 30 27 23 21 20 19 18 17 16 15 14 13 13 14 15 17 19 21 21 22 24 25 25 26 28 31
58 60 60 60 59 57 57 56 55 53 52 51 49 48 49 49 47 46 45 44 43 42 41 40 38 36 36 37 36 36 35 35 35 34 34 36 38 39 39 40 40 39 40 39 37 38 39 40 42 41 38 35 34 36 36 33 33 33 32 29 25 23 22 21 19 18 17 15 14 13 12 13 14 16 18 20 21 20 22 24 26 26 27 29 33
58 61 62 62 61 60 58 57 56 55 55 53 50 48 48 49 48 48 47 45 44 43 42 41 40 38 37 36 37 37 37 37 37 35 34 34 37 40 42 41 39 40 41 40 39 39 39 39 38 37 37 38 38 37 35 35 36 34 29 26 25 24 23 21 19 17 16 15 13 12 13 14 15 17 18 20 20 20 21 23 25 26 27 29 33
59 61 63 63 63 62 60 58 56 55 55 54 52 49 48 47 48 49 48 45 43 42 42 41 40 38 37 36 37 38 39 38 34 32 32 34 35 39 44 46 45 43 43 42 40 40 40 40 39 39 40 39 38 36 37 37 35 32 29 28 27 25 23 21 19 17 15 14 13 13 13 15 16 17 19 20 20 20 20 22 24 26 28 30 33
59 62 63 63 63 61 60 58 56 54 54 53 52 50 49 48 47 48 48 45 41 40 41 41 39 37 37 38 38 38 38 36 32 30 31 32 34 37 43 48 49 46 44 42 40 41 43 43 44 44 43 41 39 38 38 37 34 32 31 29 27 24 22 20 18 16 15 13 13 13 15 16 17 18 19 21 21 20 20 22 23 25 28 30 33
59 62 63 62 60 58 57 56 55 53 52 51 49 48 47 47 47 47 46 43 40 40 40 39 39 38 38 38 39 38 38 36 34 32 30 29 32 35 41 47 50 48 46 44 42 42 44 45 46 46 45 43 41 39 37 35 33 33 31 29 26 24 21 19 17 15 14 13 13 14 15 17 17 18 19 20 21 21 21 22 23 25 28 30 32
55 59 61 59 55 52 52 53 52 50 49 48 45 43 42 43 44 45 43 39 37 38 39 39 38 38 38 38 39 39 38 37 36 34 30 28 30 32 38 46 50 48 45 45 44 44 45 47 48 48 46 44 41 38 36 35 34 33 31 28 25 23 21 19 17 14 13 13 14 14 15 17 17 18 19 20 21 23 23 23 25 26 28 30 31
51 54 57 55 51 47 46 46 45 43 42 41 40 38 38 39 41 43 41 37 35 35 37 37 36 35 36 37 38 38 37 36 37 35 31 28 28 30 36 43 48 48 47 46 45 44 46 47 48 48 46 43 39 37 36 35 34 32 30 27 25 23 20 18 16 14 14 14 15 14 15 16 17 18 19 20 21 23 24 25 26 27 27 30 31
47 48 50 48 45 41 38 36 35 35 35 36 37 38 39 39 40 40 39 37 36 36 35 35 35 33 33 33 34 35 36 35 36 36 32 28 27 30 36 39 42 45 49 50 47 46 46 47 47 46 43 40 38 38 37 36 34 32 29 27 25 22 19 17 16 15 15 15 14 14 14 15 16 17 19 20 22 23 25 26 27 27 28 29 31
44 45 44 41 38 37 37 37 38 40 40 39 39 38 37 38 39 39 38 37 37 38 37 36 34 33 32 31 32 32 33 33 33 32 32 30 26 29 37 42 41 43 48 51 50 48 45 45 45 43 41 39 39 38 37 35 33 31 28 26 24 21 18 17 16 15 15 14 14 14 14 14 15 17 19 21 22 24 26 27 27 28 28 29 31
44 44 43 41 40 41 43 44 43 43 42 41 39 38 37 37 38 38 37 37 37 38 37 36 34 32 31 31 31 30 30 31 30 28 29 30 28 32 43 49 47 47 49 50 51 48 45 43 43 41 39 39 38 37 35 33 31 30 27 25 22 19 18 17 17 16 15 13 13 13 14 14 15 17 19 21 23 24 26 28 28 28 28 29 31
44 45 44 43 41 41 42 41 39 38 38 39 38 36 35 37 37 36 36 36 35 35 36 35 34 33 32 31 31 29 28 29 28 25 26 29 30 37 47 50 49 49 51 50 49 48 45 43 41 38 37 37 36 35 34 32 31 29 26 23 20 19 18 17 16 15 14 13 12 13 14 14 15 16 19 21 23 25 26 27 28 28 29 29 30
43 42 41 39 38 37 38 38 36 35 34 35 35 34 33 34 35 35 35 35 33 33 34 34 34 33 33 32 31 29 28 27 27 25 28 31 35 41 48 49 48 50 52 50 48 46 45 43 39 36 35 35 35 33 33 31 29 26 23 21 20 19 18 17 16 14 13 12 12 13 13 14 15 16 19 21 24 25 26 27 28 29 31 31 31
44 43 40 39 38 38 38 36 34 33 31 30 30 31 32 33 34 35 35 34 34 34 34 33 34 34 33 32 31 31 30 31 31 31 34 37 39 43 48 49 48 50 51 48 45 44 44 42 38 35 34 34 33 32 31 29 26 24 21 20 19 18 17 16 15 13 12 12 12 12 13 14 15 17 19 21 23 25 27 28 28 28 30 32 34
42 42 40 38 36 36 35 34 35 36 35 34 33 32 31 32 33 34 34 33 34 34 34 33 34 34 32 31 32 34 35 36 35 35 37 40 42 45 49 50 50 51 50 46 44 43 41 39 36 34 34 34 32 31 29 25 23 21 19 18 18 16 15 14 13 12 12 12 12 12 14 15 16 18 20 21 23 26 27 27 28 27 29 33 37
39 40 40 37 36 36 36 37 38 39 39 38 37 36 35 33 32 32 33 33 33 33 33 33 33 33 32 31 33 35 37 37 36 36 39 42 45 47 50 51 52 50 47 46 45 42 38 35 34 34 34 33 31 29 26 23 21 19 18 17 16 15 14 13 12 12 12 12 12 13 14 15 17 19 21 22 24 26 27 27 28 28 30 34 38
36 37 37 35 34 35 36 36 36 36 36 35 34 33 34 35 33 31 31 32 33 32 32 32 31 31 30 30 31 34 36 36 36 38 41 44 46 48 48 49 49 47 45 44 43 40 36 34 34 33 32 30 27 25 22 20 19 18 16 16 15 13 13 13 12 12 13 12 13 13 14 16 17 19 21 23 24 26 27 27 28 30 33 37 38
32 32 32 32 31 32 32 33 33 32 31 31 30 29 29 31 32 31 31 31 31 30 30 30 29 29 29 29 30 33 35 36 37 40 43 44 46 47 46 45 45 43 42 40 37 34 33 33 32 30 28 26 23 21 19 18 17 16 15 14 14 13 12 12 12 13 13 13 13 14 15 17 18 19 21 23 25 26 27 28 30 32 35 37 38
29 29 29 29 30 31 31 31 31 30 29 28 27 26 27 27 28 28 29 30 29 28 27 28 28 28 28 28 30 33 35 36 38 40 42 44 45 44 43 42 41 39 37 34 32 31 31 31 30 28 26 23 21 19 18 16 15 15 14 13 12 12 12 12 13 13 13 13 14 15 16 18 18 20 22 23 25 26 27 28 31 35 37 37 37
27 28 29 29 30 30 31 31 30 29 28 27 25 24 25 25 26 27 28 27 26 25 25 26 26 27 28 29 32 35 36 36 37 39 41 43 43 42 41 39 37 34 32 31 30 30 30 29 27 25 23 21 19 17 16 15 14 13 13 12 11 11 12 12 13 14 14 15 15 16 17 19 19 20 22 24 24 25 27 30 34 36 36 36 37
26 27 28 29 29 29 28 28 27 26 24 23 21 20 21 23 24 25 25 24 23 23 24 25 26 27 28 31 34 35 35 35 36 37 38 40 40 38 37 35 33 31 30 29 29 29 28 26 24 22 19 18 17 15 14 13 13 12 11 11 10 11 12 12 13 14 15 16 16 17 18 19 20 21 23 24 24 25 28 32 35 35 34 35 37
25 25 25 25 25 24 23 21 20 19 18 17 17 18 19 20 20 21 20 21 22 23 24 25 26 27 29 32 34 34 33 34 35 35 35 37 37 35 34 33 30 28 28 28 28 27 25 23 21 19 17 16 15 14 13 12 11 10 10 10 10 11 11 12 13 14 15 16 17 18 18 19 20 22 23 24 24 26 30 34 35 34 33 34 37
22 21 21 19 19 18 16 14 13 11 11 11 13 14 15 16 17 17 18 20 22 23 25 26 27 28 30 32 32 32 32 32 33 33 33 34 34 33 32 29 27 26 27 28 27 25 23 21 19 17 16 14 13 12 11 10 9 8 8 9 9 10 12 13 14 14 15 16 17 18 18 19 21 22 24 24 24 27 32 35 34 32 32 34 37
19 17 16 15 13 12 10 8 7 6 6 8 9 11 12 13 15 16 18 20 22 23 25 26 28 30 31 31 30 29 30 30 31 31 32 32 31 29 27 25 25 26 27 27 25 23 21 19 17 16 14 13 12 10 9 8 7 7 7 8 9 11 12 13 14 14 16 17 17 18 19 20 21 22 23 23 25 29 34 34 32 30 32 35 38
15 14 13 11 10 8 6 4 3 2 3 5 7 9 11 13 15 16 18 20 21 23 24 26 27 28 29 28 26 26 28 29 30 30 30 28 26 25 24 26 27 27 26 24 22 20 19 17 16 15 13 11 10 9 7 6 6 6 7 8 10 11 13 13 14 15 16 17 18 18 19 20 21 22 21 22 27 32 34 31 29 30 32 35 39
15 14 12 11 9 8 7 5 3 2 3 4 6 8 11 12 14 16 17 18 20 21 22 23 24 25 24 23 23 24 26 27 28 27 26 24 24 25 26 27 27 26 24 22 20 19 17 16 15 13 12 10 9 7 6 6 6 6 8 9 10 12 13 14 15 15 15 17 18 18 18 19 20 20 21 24 29 33 32 28 28 30 33 36 39
Wind_Direction
283 275 270 267 266 268 273 278 280 278 275 273 270 267 264 262 259 258 256 255 254 254 253 253 252 252 250 247 245 243 242 242 242 241 241 240 240 239 238 238 238 238 238 239 239 239 240 242 243 245 247 249 251 254 257 259 261 263 267 270 273 273 272 270 269 269 268 269 274 278 282 286 291 296 297 299 303 307 309 310 309 310 312 313 314
299 287 280 275 271 269 270 271 275 279 281 279 276 273 271 268 264 261 260 258 257 256 255 254 254 253 252 250 247 245 243 242 241 241 240 240 240 239 238 237 237 237 237 237 238 238 239 240 241 243 245 247 249 252 255 257 259 261 264 267 269 271 271 270 270 271 270 270 275 280 282 286 294 301 304 306 310 313 313 312 311 311 312 312 311
316 304 294 287 281 277 275 275 278 281 283 284 282 279 276 273 268 264 262 261 259 258 257 256 255 254 253 252 249 246 244 242 241 240 239 239 239 239 238 238 237 237 237 237 237 237 238 239 240 241 243 245 248 251 253 255 257 259 261 263 265 268 269 270 270 272 274 272 274 281 287 292 300 307 310 312 315 317 318 317 316 315 316 314 313
320 310 301 293 287 283 282 283 284 284 285 287 287 285 281 275 270 266 263 261 260 259 258 257 256 255 254 252 251 249 246 243 241 239 238 238 238 238 238 238 238 238 238 237 237 237 237 238 239 241 242 244 247 249 252 253 255 257 258 260 262 264 266 267 268 270 273 274 276 283 290 297 303 308 312 315 318 320 322 322 320 320 320 319 318
328 316 305 297 293 290 289 289 288 286 287 287 288 289 285 279 272 267 263 261 260 260 258 257 256 255 254 253 252 251 248 245 242 240 239 238 238 238 239 238 238 238 238 237 237 237 237 238 239 240 241 243 245 248 250 252 254 255 256 257 259 260 261 262 265 268 272 277 281 285 292 297 303 308 313 317 318 318 319 320 323 326 326 324 324
338 328 317 308 303 301 299 295 291 290 289 288 288 288 286 281 275 268 264 262 261 260 259 257 257 256 255 254 253 252 250 247 244 242 240 239 238 238 238 239 239 238 238 237 237 237 237 238 238 239 240 242 244 246 248 250 252 253 253 254 255 256 256 259 263 267 272 278 283 287 291 296 303 309 314 317 317 316 317 319 323 326 326 324 325
345 337 328 318 310 306 303 299 297 296 295 293 291 287 285 282 277 272 267 263 262 261 260 258 258 258 256 254 253 252 250 248 246 243 241 239 238 237 238 238 238 237 237 237 237 237 237 237 237 238 238 240 242 244 245 247 249 249 250 252 252 252 254 257 261 266 272 277 282 286 289 295 303 308 312 315 314 316 321 323 322 323 322 322 323
353 349 341 331 319 308 301 297 297 296 296 295 292 288 285 282 279 275 270 265 262 262 261 259 259 258 256 254 253 252 251 249 247 244 241 239 238 237 237 237 237 237 236 236 236 236 236 237 237 237 238 239 240 242 243 244 245 246 247 249 249 250 253 256 260 265 270 274 278 282 288 296 304 307 311 314 314 318 323 323 321 321 322 322 323
356 356 355 350 342 328 310 299 294 292 292 292 291 290 287 284 280 276 272 268 264 262 260 259 258 258 256 254 252 251 250 250 248 246 243 240 239 237 237 237 236 236 236 235 235 235 235 235 236 236 236 237 238 240 241 242 242 243 245 247 248 249 251 254 258 263 268 270 273 279 288 297 303 307 310 313 317 321 323 320 318 319 321 321 323
351 353 355 356 353 347 335 318 303 295 293 293 292 290 288 286 282 277 273 270 266 262 260 258 257 257 256 253 252 251 250 250 249 248 246 243 241 239 238 237 236 236 235 235 234 233 233 233 234 234 234 235 237 238 238 239 240 242 243 244 245 247 249 252 257 262 265 267 272 280 290 297 303 306 309 313 317 319 319 318 317 319 321 321 322
348 348 349 351 352 352 350 343 331 317 308 304 299 294 290 286 282 278 275 271 267 264 261 259 257 257 256 253 252 252 252 251 250 249 247 245 242 240 239 239 238 236 236 235 234 233 232 232 232 232 232 233 234 235 236 237 239 240 242 242 243 245 248 252 257 260 262 266 273 282 291 297 302 305 308 311 313 315 316 316 317 320 322 323 323
345 344 343 344 346 348 350 350 348 342 332 320 311 304 296 288 283 280 276 273 269 266 263 260 258 257 255 253 252 252 252 252 251 249 248 246 243 241 240 240 239 238 237 236 235 234 232 232 231 230 231 232 233 234 234 236 237 239 239 240 241 243 247 252 256 258 261 267 276 285 292 296 299 302 304 306 308 311 313 315 318 320 322 322 321
344 343 342 341 340 341 343 344 347 349 345 337 326 315 305 296 289 284 280 276 271 267 264 261 258 257 255 253 252 251 251 251 250 249 248 247 245 242 240 240 240 239 238 237 235 233 232 231 230 230 230 231 231 232 233 235 237 237 236 237 239 242 246 251 254 257 263 271 278 284 289 292 295 298 300 301 304 308 312 315 318 319 319 318 317
341 341 341 341 340 339 338 338 340 343 345 344 339 331 320 309 300 291 285 278 272 268 266 262 259 257 254 252 251 251 251 251 250 249 248 247 245 243 241 240 240 240 239 238 236 235 233 232 231 230 230 230 230 231 232 234 236 236 235 235 237 240 244 248 253 259 264 269 274 280 284 286 289 292 293 296 302 309 312 312 313 316 315 314 315
337 337 336 337 338 338 337 336 335 336 339 340 341 340 334 323 312 301 290 282 276 272 268 264 262 259 255 253 251 251 251 251 249 249 248 246 245 243 241 240 240 240 239 238 236 235 234 233 232 231 231 231 231 231 232 234 236 235 235 235 236 239 242 247 253 257 261 263 268 274 276 277 281 285 290 298 303 306 305 304 309 313 310 309 311
335 335 333 333 333 334 335 334 332 331 332 333 335 337 335 330 321 309 297 288 280 274 269 266 263 261 258 255 253 252 252 250 249 248 247 245 244 243 241 240 240 239 238 237 236 234 233 232 231 231 231 231 231 232 233 234 235 234 233 234 236 237 240 244 249 252 253 256 261 266 269 272 278 284 291 297 298 298 299 301 308 310 306 306 309
334 334 332 331 329 329 330 331 330 329 327 327 327 329 330 330 325 315 303 294 286 279 273 269 265 262 259 256 254 253 252 250 249 248 246 245 243 242 241 239 238 238 237 236 234 233 233 232 231 231 231 231 231 231 232 233 233 232 232 233 234 235 237 241 243 243 245 250 257 263 267 273 277 282 287 288 289 292 295 301 307 307 305 307 311
331 331 330 329 328 326 325 325 325 326 325 323 322 322 323 324 324 319 308 299 292 285 279 273 267 263 260 257 256 254 253 252 250 248 246 244 243 242 240 239 238 237 236 235 234 232 232 231 230 231 231 230 230 230 231 232 231 230 231 232 233 235 236 236 236 236 240 247 254 259 263 268 272 276 279 280 282 288 294 301 306 305 305 308 311
328 328 327 326 325 325 324 322 321 321 321 319 318 316 315 317 318 317 312 303 295 287 281 274 269 266 263 260 258 255 254 253 250 248 246 244 242 241 239 238 237 237 235 234 232 231 230 229 228 228 228 228 229 230 232 232 230 230 231 231 233 234 233 231 232 234 240 246 250 253 256 261 267 270 272 275 280 287 293 299 302 303 305 307 309
327 325 324 323 322 322 322 321 319 317 316 315 313 311 310 310 311 311 310 305 296 287 280 275 272 270 267 264 261 258 255 253 250 248 245 243 241 240 239 237 237 236 234 233 231 229 228 227 226 226 225 226 228 230 231 231 230 228 230 231 232 232 229 229 232 236 242 245 247 250 254 257 261 265 269 274 281 287 292 296 299 301 304 304 306
324 323 321 320 320 320 320 319 317 315 313 311 310 308 307 306 305 305 305 302 295 287 280 276 274 273 270 266 263 260 257 255 251 247 244 241 239 239 239 238 238 237 235 233 232 230 228 227 226 224 224 224 226 228 229 230 229 228 229 231 231 230 228 229 234 240 244 245 245 249 253 257 261 265 271 278 285 290 294 297 299 300 300 302 304
320 319 318 318 318 318 318 316 314 312 310 309 307 305 304 302 300 299 299 297 293 286 281 277 274 272 270 266 263 260 257 255 252 248 244 240 237 238 239 239 239 238 236 233 232 230 229 229 227 225 224 226 227 226 225 227 229 228 229 229 229 228 229 232 236 240 242 243 243 247 251 256 260 266 273 281 288 294 297 297 297 297 298 301 303
317 315 315 315 314 314 314 313 311 309 307 306 304 301 301 299 297 295 294 292 289 285 281 277 273 269 266 264 262 259 256 254 251 247 244 239 233 233 238 239 238 237 236 234 233 231 231 230 228 226 227 227 225 223 221 223 226 229 228 226 225 227 230 232 234 236 237 239 243 247 250 255 261 267 275 283 290 295 296 296 296 298 299 301 302
315 313 312 311 311 311 310 309 308 307 304 302 300 298 297 295 294 292 290 288 285 282 280 276 271 269 266 264 261 259 256 253 251 247 243 238 231 228 233 238 237 236 235 234 234 233 232 231 229 228 228 226 223 221 220 220 223 228 227 222 222 228 232 233 232 232 235 240 245 249 252 258 266 273 280 287 292 294 295 296 298 300 301 302 302
314 312 311 310 309 308 307 306 305 304 303 300 298 296 295 293 290 288 286 283 280 278 276 274 271 270 268 266 263 260 257 254 252 248 242 237 230 224 227 234 236 237 236 233 233 233 232 232 231 227 225 223 219 216 217 217 219 222 220 218 223 230 233 233 232 233 237 242 246 250 254 262 271 279 286 291 293 294 296 297 298 302 303 302 302
311 311 310 309 308 306 305 303 302 301 300 298 296 294 293 291 287 284 282 279 277 274 272 272 271 270 268 267 265 262 258 254 252 249 243 236 227 219 223 230 233 235 235 233 233 234 232 231 230 224 218 216 213 212 214 214 213 214 217 221 228 231 230 230 232 234 238 242 245 249 256 265 275 284 289 291 292 295 299 299 300 303 306 305 303
309 309 309 308 306 304 303 302 300 299 298 296 295 293 291 289 285 280 277 275 273 272 270 268 269 269 269 269 266 263 259 254 250 247 242 236 227 218 220 227 228 228 229 228 228 230 229 228 228 224 217 211 209 213 214 210 209 215 221 226 228 228 227 228 231 233 236 241 244 251 262 271 279 286 287 288 293 297 299 300 303 307 310 309 307
305 306 306 305 304 302 301 299 297 296 295 294 293 290 288 286 283 279 276 274 273 272 271 269 269 270 271 271 268 263 259 255 252 248 242 237 228 218 216 220 222 222 224 223 221 220 220 220 220 216 210 207 208 212 213 212 215 220 224 225 224 224 225 227 229 232 236 241 247 257 269 275 280 285 286 288 293 297 299 303 306 309 312 312 309
303 303 303 302 301 300 298 296 295 294 292 291 290 288 285 283 280 279 278 276 273 272 271 271 271 271 271 270 268 263 260 260 261 259 251 242 233 221 216 217 220 221 221 220 217 213 211 211 211 208 206 207 210 213 214 215 217 219 220 220 221 222 224 226 229 232 236 243 252 262 271 276 280 285 287 289 294 299 303 306 309 311 313 312 310
302 301 300 299 298 297 296 294 293 292 290 289 288 286 284 281 278 277 276 276 275 272 270 270 271 271 269 268 267 265 266 268 269 264 255 246 237 226 218 217 219 220 217 215 215 214 210 209 209 210 210 211 214 215 215 214 215 216 217 218 218 220 222 225 228 232 237 246 257 265 272 278 281 284 288 291 297 302 306 309 313 314 314 312 309
299 298 297 296 295 295 294 293 291 290 288 286 286 285 283 281 278 276 275 275 275 272 269 267 267 266 265 265 264 264 265 265 262 257 252 247 238 225 216 216 219 219 215 212 211 212 212 210 209 210 212 213 214 214 213 212 213 214 215 216 217 218 221 223 227 232 239 249 259 266 272 278 281 285 291 295 300 305 309 313 316 315 312 311 310
296 295 295 294 294 293 291 290 289 287 285 284 284 284 283 282 280 277 275 275 275 273 270 268 265 263 263 263 263 261 260 259 259 255 249 244 238 223 212 215 218 217 214 214 213 212 212 212 210 210 212 212 212 211 210 210 211 212 212 214 215 217 219 222 226 232 240 249 257 263 270 277 282 287 294 299 303 307 311 315 317 315 312 311 312
294 294 293 293 293 292 290 289 288 287 286 285 284 282 280 279 278 278 278 278 278 274 269 266 264 261 259 260 261 262 260 257 256 255 247 241 235 220 209 212 217 215 211 212 213 213 212 212 212 213 213 211 209 208 207 208 208 209 209 211 212 214 217 220 225 232 239 246 254 261 268 276 283 290 297 302 305 308 313 317 317 316 314 315 316
293 292 291 291 292 292 288 283 279 277 277 278 278 279 277 275 273 274 276 278 277 272 266 262 260 257 255 253 254 259 260 256 252 251 246 239 231 217 206 207 212 214 213 214 214 213 212 212 213 213 213 210 207 206 205 205 205 205 206 207 208 211 215 220 226 233 238 245 254 261 268 277 286 293 298 302 306 310 314 317 317 316 317 319 319
292 290 288 286 284 280 275 270 269 270 271 271 273 274 275 273 271 269 269 271 272 271 267 264 260 257 255 249 245 248 254 254 251 248 244 237 227 211 204 204 204 204 209 214 215 214 214 214 213 212 209 207 206 204 204 203 202 202 203 204 206 209 214 220 226 232 238 245 254 262 271 280 287 293 298 303 309 313 315 316 317 318 320 322 320
292 290 287 284 280 278 276 275 275 276 275 274 273 270 267 267 267 267 267 267 267 267 267 265 263 259 255 248 241 238 240 244 247 247 241 235 221 203 200 203 201 198 201 207 211 213 215 215 213 210 207 205 204 202 201 200 199 199 200 201 203 208 214 220 225 231 237 245 254 264 273 281 288 294 300 305 310 313 315 317 318 320 323 323 318
293 291 290 289 288 287 286 285 283 281 279 279 278 273 266 262 262 265 266 266 265 265 264 262 259 255 249 242 235 230 228 232 239 241 234 225 212 200 200 201 199 199 202 205 207 211 213 213 213 210 206 203 201 199 197 196 196 196 196 197 201 207 214 220 225 231 238 246 255 265 274 282 290 298 302 306 310 314 316 318 320 322 323 321 316
293 291 289 289 288 286 284 283 282 280 281 282 281 278 272 265 261 261 263 263 264 265 263 258 253 250 246 240 231 223 217 217 222 224 218 210 202 199 201 200 199 201 205 206 207 210 212 213 213 210 205 201 198 195 195 195 194 194 194 196 201 208 213 219 226 232 239 248 258 268 278 288 295 300 304 307 312 316 318 322 324 324 323 320 316
288 287 285 284 283 279 278 278 276 274 275 277 277 277 277 271 262 258 260 261 262 262 259 253 249 246 245 239 228 216 209 207 208 209 207 203 199 199 200 200 200 203 206 207 207 210 212 213 210 206 202 198 195 193 194 194 192 192 194 197 203 209 213 220 228 236 244 254 264 274 285 293 297 301 305 309 314 318 321 325 326 323 320 319 318
289 289 288 286 283 278 275 274 271 268 266 265 263 265 270 271 265 260 260 261 261 259 254 249 246 243 239 233 224 213 206 204 205 205 203 200 199 200 201 201 201 204 206 208 209 211 212 210 206 201 197 195 193 192 192 190 189 192 196 199 204 211 217 223 233 242 250 261 271 280 289 295 298 303 308 312 316 321 323 325 325 323 320 319 319
292 291 290 288 286 283 280 277 275 274 272 270 265 260 261 264 264 262 260 260 258 255 251 246 244 240 235 230 223 215 210 206 204 203 202 200 199 199 201 202 203 205 208 211 213 213 210 206 202 197 194 192 191 190 188 187 190 194 198 202 207 214 221 229 238 248 256 267 277 284 292 299 302 306 311 315 318 321 322 324 327 326 323 320 320
294 293 293 292 290 288 285 282 281 280 278 275 270 264 259 257 257 258 260 258 254 250 245 241 237 233 229 224 218 213 210 207 202 200 201 201 199 200 201 202 203 206 211 215 215 212 207 201 196 194 191 190 188 187 187 189 192 196 200 206 211 218 226 234 245 254 262 272 283 291 297 302 305 309 313 316 318 319 322 326 330 328 323 321 321
298 296 295 294 292 289 287 286 285 283 280 275 271 266 261 256 254 255 258 256 250 245 240 235 231 226 221 216 209 205 204 203 201 200 201 200 199 201 201 201 203 208 213 214 212 209 202 195 190 187 186 185 185 186 188 192 195 200 205 211 216 224 232 242 252 261 268 279 289 296 300 304 307 311 313 315 317 319 324 330 331 327 322 322 323
304 301 300 299 296 294 291 288 285 282 280 276 270 266 263 258 254 253 253 250 245 240 235 230 225 220 213 205 199 198 200 201 200 201 201 200 200 200 201 202 206 209 210 206 201 197 193 188 185 183 181 181 184 188 191 195 200 205 210 216 223 232 240 250 259 268 277 286 292 298 302 305 309 311 313 315 319 322 327 331 330 325 323 323 323
311 308 307 305 302 298 295 291 286 282 278 275 271 266 261 257 253 249 246 243 238 233 229 223 217 211 204 196 193 197 200 201 201 201 201 201 200 200 201 203 205 203 199 193 189 186 183 181 180 180 180 182 186 190 194 199 204 210 217 224 232 241 249 258 267 275 284 291 295 301 304 306 309 311 312 316 322 326 329 331 328 323 322 323 322
318 315 312 309 307 304 299 294 290 285 281 277 273 266 258 253 248 242 238 235 231 225 218 212 207 203 197 193 194 198 201 200 201 202 202 201 200 199 197 195 192 189 186 184 181 178 176 174 175 178 180 184 189 193 198 204 209 217 225 232 241 250 259 268 275 281 289 294 299 303 304 305 307 309 311 317 324 329 330 328 323 320 321 323 323
324 320 316 312 309 308 305 301 297 291 286 278 269 258 250 244 238 232 228 224 218 212 207 203 200 197 195 194 195 198 199 200 201 201 198 196 194 190 186 184 182 182 181 179 175 174 173 173 175 178 182 186 192 197 201 208 215 223 232 240 250 260 268 274 280 286 292 296 299 302 304 304 304 306 312 321 329 330 327 322 318 319 324 326 324
329 325 321 318 315 312 311 310 305 295 280 264 250 239 233 228 221 215 211 207 204 201 200 197 194 192 192 193 194 195 196 196 196 193 188 185 182 180 179 181 182 180 177 173 171 171 172 173 176 180 184 189 195 199 205 213 221 231 243 255 264 271 276 281 285 289 292 296 299 302 302 301 303 309 318 327 330 325 320 317 316 320 326 326 325
336 332 330 328 325 321 318 314 302 281 255 237 225 215 210 206 201 197 195 194 193 192 192 191 189 189 189 190 190 191 191 190 187 181 176 174 174 176 178 180 178 175 171 170 170 170 172 174 178 182 186 191 197 202 209 220 233 246 260 271 277 280 283 285 288 290 293 296 300 301 300 301 307 316 325 328 323 317 314 314 316 323 327 326 324
348 347 346 345 343 343 343 335 312 258 214 207 201 191 187 186 185 185 186 187 186 186 186 187 186 187 187 187 186 185 183 181 177 174 172 172 175 177 178 176 173 170 169 169 170 171 173 177 181 184 188 194 200 207 217 231 246 263 276 282 284 286 288 288 289 292 295 298 299 300 301 305 313 321 325 321 314 312 312 313 318 325 328 325 325
6 5 6 9 11 12 14 18 35 89 142 165 169 170 173 174 174 176 179 181 181 183 184 184 184 183 182 180 178 177 175 173 171 171 174 177 178 177 175 171 169 168 168 168 170 174 177 180 183 187 193 199 205 215 229 244 260 275 283 285 287 289 289 290 292 294 296 298 300 303 305 308 314 321 320 312 309 310 311 314 321 328 328 326 326
Height
1403 1403 1403 1403 1404 1405 1406 1407 1407 1406 1406 1406 1406 1406 1406 1407 1408 1409 1410 1410 1410 1411 1412 1413 1416 1418 1420 1422 1424 1426 1428 1430 1433 1435 1437 1440 1442 1445 1447 1450 1452 1454 1457 1459 1461 1463 1464 1465 1467 1469 1470 1471 1471 1472 1472 1473 1473 1473 1474 1474 1475 1475 1476 1477 1478 1480 1481 1479 1479 1479 1479 1479 1480 1483 1483 1483 1483 1482 1481 1479 1477 1476 1475 1474 1473
1400 1401 1401 1401 1402 1403 1404 1404 1404 1404 1404 1403 1403 1403 1403 1403 1404 1405 1405 1405 1406 1407 1407 1409 1411 1413 1414 1416 1418 1420 1422 1424 1427 1429 1430 1433 1435 1438 1440 1443 1445 1448 1450 1453 1455 1458 1459 1461 1463 1465 1466 1467 1468 1469 1470 1470 1470 1470 1471 1471 1472 1472 1473 1474 1474 1475 1477 1477 1475 1474 1474 1474 1475 1477 1478 1476 1476 1476 1475 1474 1473 1472 1472 1471 1470
1397 1398 1398 1399 1400 1401 1401 1401 1402 1401 1401 1400 1399 1399 1399 1399 1400 1400 1400 1401 1402 1402 1403 1404 1406 1407 1408 1410 1412 1414 1417 1419 1420 1421 1423 1425 1428 1430 1433 1435 1438 1440 1443 1446 1449 1452 1454 1457 1459 1461 1462 1463 1465 1466 1467 1467 1467 1468 1468 1469 1469 1470 1470 1470 1471 1470 1471 1473 1472 1470 1469 1469 1470 1472 1472 1470 1468 1467 1467 1467 1467 1467 1467 1466 1464
1395 1395 1396 1396 1396 1397 1397 1398 1398 1398 1397 1397 1395 1394 1394 1394 1394 1394 1395 1396 1396 1397 1398 1400 1401 1401 1402 1403 1405 1408 1410 1412 1413 1414 1416 1418 1421 1423 1425 1428 1431 1433 1436 1440 1443 1446 1448 1451 1454 1456 1458 1459 1461 1462 1463 1464 1464 1465 1466 1466 1466 1467 1467 1467 1466 1466 1466 1467 1468 1467 1465 1465 1466 1467 1467 1465 1462 1460 1459 1459 1460 1460 1460 1459 1458
1394 1393 1393 1392 1392 1392 1392 1393 1394 1393 1393 1393 1391 1390 1390 1389 1389 1388 1389 1390 1390 1392 1393 1393 1394 1394 1395 1397 1399 1401 1403 1406 1407 1409 1410 1413 1415 1417 1419 1422 1425 1427 1430 1433 1437 1439 1442 1445 1449 1451 1453 1454 1456 1458 1459 1460 1461 1462 1463 1463 1463 1463 1463 1463 1462 1462 1461 1461 1463 1463 1462 1462 1462 1462 1461 1459 1457 1455 1454 1454 1453 1452 1452 1452 1452
1392 1390 1389 1388 1387 1387 1387 1388 1388 1388 1388 1387 1387 1386 1385 1384 1383 1383 1383 1384 1384 1385 1386 1387 1387 1387 1389 1391 1393 1395 1397 1400 1402 1403 1406 1408 1410 1412 1414 1417 1419 1422 1424 1427 1430 1433 1436 1439 1443 1445 1447 1449 1451 1453 1454 1456 1457 1459 1460 1460 1460 1460 1459 1459 1459 1458 1457 1457 1458 1459 1459 1459 1458 1457 1456 1454 1452 1451 1449 1449 1449 1449 1448 1446 1446
1390 1388 1386 1385 1383 1383 1382 1382 1382 1382 1382 1382 1382 1381 1380 1379 1378 1377 1378 1378 1379 1380 1381 1382 1382 1382 1383 1385 1387 1390 1392 1394 1396 1398 1400 1402 1404 1406 1408 1411 1413 1415 1418 1421 1424 1427 1430 1434 1436 1439 1441 1443 1445 1447 1449 1450 1452 1454 1455 1456 1456 1456 1455 1455 1455 1454 1454 1453 1454 1454 1455 1455 1454 1452 1450 1450 1448 1447 1445 1443 1443 1445 1446 1444 1443
1389 1387 1385 1383 1382 1380 1379 1378 1377 1376 1377 1377 1376 1376 1375 1374 1373 1373 1373 1372 1373 1374 1375 1377 1377 1377 1378 1379 1382 1385 1387 1388 1390 1392 1394 1396 1398 1400 1402 1404 1406 1409 1412 1415 1418 1421 1425 1428 1431 1434 1436 1439 1441 1442 1444 1445 1447 1448 1450 1451 1451 1451 1451 1451 1451 1451 1450 1450 1450 1450 1450 1451 1449 1447 1446 1444 1443 1443 1443 1441 1439 1439 1440 1439 1439
1387 1385 1383 1381 1380 1378 1376 1374 1373 1372 1372 1371 1371 1371 1371 1370 1369 1368 1367 1367 1368 1369 1370 1371 1372 1373 1373 1374 1376 1379 1380 1382 1383 1385 1387 1390 1392 1394 1396 1398 1400 1403 1406 1408 1411 1415 1419 1422 1426 1429 1432 1434 1436 1438 1439 1440 1441 1443 1444 1446 1447 1447 1447 1447 1447 1447 1447 1447 1447 1447 1446 1446 1445 1444 1442 1440 1439 1439 1439 1439 1436 1435 1434 1432 1433
1386 1383 1381 1379 1378 1376 1374 1372 1370 1368 1367 1367 1367 1367 1366 1366 1365 1363 1362 1362 1363 1364 1365 1366 1366 1366 1367 1369 1371 1372 1374 1375 1377 1379 1381 1384 1387 1389 1391 1393 1395 1397 1399 1402 1405 1408 1412 1416 1420 1423 1427 1429 1431 1433 1434 1436 1437 1438 1439 1441 1442 1442 1442 1442 1442 1443 1443 1444 1444 1444 1443 1442 1442 1441 1439 1437 1437 1436 1436 1435 1432 1431 1429 1427 1426
1385 1383 1381 1379 1377 1375 1373 1371 1368 1366 1364 1362 1362 1361 1361 1360 1359 1358 1358 1358 1358 1359 1360 1360 1360 1359 1360 1362 1364 1366 1367 1369 1371 1374 1376 1378 1381 1384 1386 1388 1390 1392 1394 1396 1399 1402 1406 1409 1413 1417 1420 1422 1424 1426 1428 1430 1432 1433 1434 1435 1437 1438 1438 1437 1438 1438 1439 1440 1440 1440 1439 1439 1439 1438 1436 1434 1434 1433 1433 1432 1429 1427 1425 1423 1420
1384 1382 1380 1379 1376 1374 1372 1370 1368 1365 1361 1358 1356 1356 1355 1354 1353 1353 1353 1353 1354 1354 1354 1355 1355 1355 1354 1355 1357 1359 1361 1364 1367 1369 1371 1373 1376 1379 1381 1383 1384 1386 1388 1390 1393 1396 1400 1403 1407 1411 1413 1416 1418 1420 1422 1424 1426 1428 1429 1431 1432 1433 1433 1433 1433 1434 1435 1436 1436 1436 1436 1435 1434 1434 1433 1432 1431 1431 1430 1429 1427 1425 1423 1421 1418
1383 1380 1378 1376 1374 1371 1369 1367 1365 1362 1359 1355 1353 1351 1350 1349 1348 1348 1348 1349 1349 1349 1349 1350 1350 1350 1349 1348 1350 1352 1355 1358 1361 1363 1366 1368 1371 1374 1376 1377 1378 1380 1382 1384 1387 1390 1393 1397 1401 1404 1407 1410 1412 1414 1416 1418 1420 1422 1424 1426 1427 1428 1429 1428 1429 1430 1431 1431 1431 1433 1433 1431 1431 1431 1430 1429 1428 1427 1426 1425 1424 1422 1420 1419 1417
1378 1376 1375 1373 1371 1368 1366 1363 1360 1358 1356 1353 1350 1348 1346 1345 1344 1343 1343 1344 1344 1345 1346 1346 1346 1345 1344 1344 1345 1347 1349 1352 1355 1358 1361 1363 1366 1369 1371 1373 1374 1375 1377 1379 1382 1385 1388 1392 1395 1398 1401 1404 1406 1408 1411 1413 1415 1417 1419 1420 1422 1423 1423 1424 1425 1425 1426 1427 1427 1429 1429 1428 1427 1427 1427 1427 1425 1424 1423 1421 1420 1419 1417 1416 1415
1374 1372 1370 1368 1366 1364 1362 1360 1358 1356 1354 1352 1349 1346 1344 1342 1341 1340 1340 1340 1340 1341 1342 1342 1342 1341 1341 1341 1342 1342 1344 1347 1349 1352 1355 1358 1361 1364 1367 1368 1369 1370 1372 1374 1377 1380 1383 1386 1390 1393 1396 1399 1400 1403 1406 1408 1410 1412 1414 1416 1417 1418 1419 1419 1420 1421 1422 1422 1423 1425 1425 1425 1424 1424 1424 1423 1422 1421 1419 1418 1417 1416 1414 1412 1412
1372 1369 1366 1364 1362 1361 1359 1357 1356 1354 1353 1350 1348 1346 1343 1341 1339 1338 1337 1336 1337 1337 1338 1338 1338 1338 1338 1338 1338 1338 1339 1342 1344 1347 1350 1353 1356 1359 1361 1362 1363 1365 1367 1369 1371 1374 1377 1382 1386 1389 1392 1394 1396 1399 1402 1403 1405 1407 1409 1411 1412 1413 1414 1415 1416 1417 1417 1418 1419 1420 1421 1421 1421 1421 1420 1420 1419 1417 1416 1415 1415 1414 1411 1409 1408
1373 1370 1367 1364 1362 1360 1358 1356 1353 1351 1350 1348 1347 1345 1343 1340 1338 1336 1334 1333 1333 1333 1333 1334 1334 1334 1334 1334 1334 1335 1336 1337 1339 1341 1344 1347 1350 1352 1354 1356 1358 1360 1361 1363 1365 1368 1372 1377 1381 1385 1387 1390 1392 1395 1397 1398 1400 1402 1404 1406 1407 1408 1410 1411 1411 1412 1413 1414 1415 1415 1416 1417 1417 1417 1417 1417 1416 1415 1412 1412 1412 1411 1408 1405 1403
1372 1369 1367 1365 1363 1361 1359 1356 1353 1350 1348 1346 1345 1343 1342 1340 1337 1334 1332 1330 1329 1329 1329 1330 1330 1330 1330 1330 1331 1332 1332 1333 1335 1336 1339 1342 1344 1346 1347 1350 1353 1355 1358 1360 1362 1364 1367 1371 1376 1380 1383 1386 1388 1390 1392 1394 1396 1398 1399 1400 1401 1403 1405 1406 1406 1407 1408 1409 1410 1411 1412 1413 1413 1414 1414 1414 1413 1412 1409 1408 1408 1406 1404 1403 1401
1369 1367 1364 1362 1360 1359 1357 1355 1352 1350 1347 1345 1344 1342 1340 1339 1336 1333 1331 1328 1327 1326 1326 1326 1325 1325 1325 1326 1327 1328 1328 1329 1331 1332 1334 1338 1339 1339 1341 1344 1347 1349 1352 1355 1357 1359 1361 1365 1370 1374 1378 1382 1384 1386 1387 1389 1391 1393 1394 1395 1396 1399 1401 1401 1401 1403 1404 1404 1405 1407 1408 1409 1409 1410 1410 1410 1410 1409 1407 1405 1404 1402 1401 1400 1399
1366 1364 1361 1359 1357 1355 1353 1352 1350 1348 1346 1344 1343 1341 1339 1337 1335 1332 1330 1327 1325 1324 1323 1322 1321 1320 1321 1321 1322 1323 1324 1325 1326 1328 1330 1333 1334 1334 1336 1339 1341 1344 1347 1349 1351 1354 1356 1359 1364 1368 1372 1377 1380 1381 1382 1384 1387 1388 1389 1390 1392 1394 1396 1396 1397 1398 1400 1400 1402 1403 1404 1404 1405 1406 1406 1406 1406 1405 1404 1403 1401 1400 1398 1396 1396
1362 1360 1358 1355 1353 1351 1349 1348 1346 1345 1344 1342 1339 1338 1337 1335 1333 1331 1329 1326 1324 1322 1321 1319 1318 1316 1316 1317 1317 1319 1319 1320 1323 1325 1327 1329 1330 1328 1330 1334 1336 1339 1342 1345 1347 1349 1351 1354 1357 1363 1368 1373 1375 1377 1379 1380 1382 1383 1384 1386 1389 1390 1391 1392 1393 1394 1395 1397 1398 1400 1400 1401 1401 1401 1402 1402 1402 1402 1401 1400 1398 1397 1396 1394 1392
1357 1355 1353 1351 1349 1347 1345 1344 1342 1341 1339 1338 1335 1334 1333 1332 1331 1328 1327 1325 1323 1320 1318 1316 1315 1313 1312 1312 1313 1314 1315 1316 1318 1320 1323 1326 1326 1324 1325 1329 1333 1335 1337 1339 1341 1344 1347 1350 1354 1360 1366 1369 1371 1373 1375 1376 1377 1378 1381 1383 1385 1385 1386 1387 1389 1390 1391 1393 1395 1396 1397 1397 1397 1397 1398 1398 1398 1398 1397 1397 1396 1395 1393 1391 1390
1353 1350 1348 1346 1344 1343 1341 1339 1337 1336 1334 1333 1331 1329 1328 1328 1327 1325 1323 1321 1320 1317 1315 1313 1311 1310 1309 1308 1308 1309 1310 1311 1313 1315 1318 1321 1323 1322 1322 1325 1329 1331 1333 1335 1338 1340 1344 1348 1353 1359 1363 1365 1367 1369 1371 1372 1372 1373 1377 1380 1380 1380 1381 1383 1384 1386 1387 1389 1390 1392 1393 1393 1393 1394 1394 1394 1394 1394 1394 1393 1393 1391 1390 1388 1387
1348 1345 1343 1341 1339 1337 1335 1334 1332 1331 1329 1328 1325 1323 1322 1322 1322 1320 1319 1317 1315 1313 1311 1309 1307 1305 1305 1304 1304 1304 1305 1306 1308 1311 1313 1315 1319 1319 1319 1322 1326 1328 1330 1333 1335 1338 1343 1348 1352 1356 1359 1361 1363 1366 1368 1369 1369 1370 1373 1375 1375 1375 1377 1379 1380 1382 1384 1385 1387 1388 1389 1389 1389 1390 1390 1389 1390 1391 1391 1390 1389 1388 1386 1384 1382
1341 1339 1338 1336 1333 1331 1329 1327 1326 1325 1324 1322 1320 1317 1316 1316 1316 1315 1314 1312 1310 1309 1307 1304 1303 1301 1300 1300 1300 1301 1301 1301 1303 1306 1309 1311 1314 1315 1314 1316 1321 1325 1328 1331 1333 1337 1342 1347 1351 1354 1356 1357 1360 1363 1364 1366 1367 1368 1370 1370 1370 1372 1374 1375 1377 1379 1380 1382 1383 1384 1385 1385 1385 1385 1385 1385 1386 1387 1387 1386 1384 1383 1382 1379 1377
1333 1332 1330 1329 1327 1325 1322 1320 1319 1318 1317 1316 1314 1312 1310 1309 1309 1309 1309 1307 1305 1304 1302 1300 1298 1296 1295 1295 1296 1297 1298 1298 1298 1300 1304 1307 1311 1314 1312 1310 1313 1318 1323 1327 1332 1336 1340 1344 1348 1351 1353 1355 1358 1359 1360 1363 1365 1365 1365 1366 1367 1370 1371 1372 1374 1375 1376 1378 1379 1380 1381 1381 1381 1382 1382 1382 1383 1383 1382 1381 1379 1379 1377 1374 1371
1325 1324 1323 1321 1320 1318 1316 1313 1312 1311 1310 1309 1307 1305 1304 1303 1302 1302 1302 1301 1300 1298 1297 1295 1292 1291 1290 1291 1292 1292 1293 1293 1293 1294 1297 1301 1306 1312 1312 1310 1309 1312 1315 1320 1325 1330 1334 1339 1345 1348 1351 1353 1354 1355 1357 1359 1360 1360 1361 1363 1365 1367 1368 1369 1370 1371 1372 1373 1375 1376 1377 1377 1378 1378 1379 1379 1379 1380 1379 1376 1374 1373 1372 1369 1365
1319 1317 1316 1314 1312 1311 1310 1308 1306 1304 1303 1301 1300 1298 1296 1296 1295 1294 1294 1294 1293 1292 1291 1289 1287 1285 1285 1286 1287 1288 1287 1287 1288 1289 1292 1294 1298 1304 1308 1308 1308 1308 1311 1315 1319 1323 1327 1333 1340 1345 1347 1348 1349 1351 1354 1356 1356 1357 1360 1361 1363 1364 1365 1366 1367 1367 1368 1369 1370 1372 1373 1374 1374 1375 1375 1375 1376 1376 1375 1373 1370 1368 1366 1364 1360
1312 1310 1308 1306 1304 1303 1301 1300 1298 1296 1294 1292 1291 1289 1288 1289 1288 1286 1286 1287 1286 1286 1285 1283 1281 1280 1280 1280 1281 1282 1282 1281 1283 1286 1288 1290 1293 1297 1300 1302 1303 1303 1306 1311 1315 1319 1322 1326 1333 1337 1339 1341 1344 1347 1350 1352 1354 1355 1357 1358 1360 1361 1362 1363 1363 1363 1364 1365 1367 1368 1369 1370 1371 1371 1371 1371 1372 1372 1370 1368 1366 1364 1362 1360 1357
1303 1301 1299 1298 1296 1294 1292 1290 1289 1288 1285 1283 1281 1280 1280 1281 1280 1279 1278 1278 1279 1279 1279 1277 1276 1275 1275 1274 1274 1276 1277 1278 1281 1282 1284 1286 1289 1293 1296 1298 1299 1301 1303 1307 1311 1314 1316 1319 1324 1328 1331 1334 1338 1342 1345 1348 1350 1352 1353 1355 1357 1358 1359 1359 1359 1359 1360 1362 1363 1364 1365 1366 1367 1367 1367 1366 1366 1366 1366 1364 1363 1361 1358 1356 1354
1293 1291 1290 1288 1287 1286 1283 1281 1280 1280 1277 1276 1274 1272 1271 1272 1272 1271 1271 1271 1272 1272 1272 1271 1271 1269 1268 1268 1269 1271 1273 1275 1277 1278 1279 1282 1285 1289 1293 1296 1297 1298 1301 1303 1306 1309 1311 1314 1317 1321 1325 1328 1332 1335 1340 1343 1345 1348 1350 1352 1354 1356 1356 1356 1355 1356 1357 1358 1360 1361 1362 1363 1363 1363 1362 1362 1361 1361 1361 1360 1359 1357 1355 1353 1350
1285 1281 1280 1279 1278 1278 1276 1273 1272 1271 1270 1269 1268 1267 1266 1264 1263 1263 1263 1264 1265 1266 1265 1265 1264 1263 1262 1262 1263 1265 1268 1270 1272 1273 1275 1278 1280 1285 1290 1292 1293 1296 1298 1300 1302 1305 1306 1308 1312 1315 1319 1323 1327 1331 1334 1337 1340 1343 1346 1349 1351 1352 1352 1352 1352 1353 1354 1355 1357 1358 1359 1359 1359 1359 1358 1358 1357 1356 1357 1356 1355 1353 1351 1348 1346
1279 1275 1272 1270 1270 1269 1268 1266 1265 1264 1263 1262 1262 1262 1261 1260 1257 1256 1256 1257 1259 1260 1260 1259 1258 1257 1257 1256 1256 1258 1262 1265 1267 1269 1271 1274 1277 1281 1286 1288 1289 1292 1294 1295 1298 1301 1303 1305 1308 1311 1315 1319 1323 1326 1329 1332 1336 1339 1342 1345 1347 1348 1348 1348 1349 1350 1351 1353 1354 1355 1356 1356 1355 1355 1354 1354 1354 1353 1352 1351 1350 1349 1346 1344 1341
1272 1269 1266 1264 1264 1263 1262 1262 1261 1260 1259 1258 1256 1256 1255 1254 1253 1252 1251 1252 1252 1253 1254 1253 1252 1251 1251 1251 1251 1253 1255 1259 1262 1264 1267 1270 1273 1277 1282 1286 1287 1287 1288 1289 1292 1296 1298 1302 1305 1308 1312 1316 1319 1322 1325 1328 1331 1335 1338 1341 1343 1343 1344 1345 1346 1347 1348 1350 1351 1352 1352 1352 1351 1351 1350 1350 1350 1350 1348 1347 1346 1344 1342 1340 1337
1265 1262 1260 1260 1260 1258 1257 1256 1255 1254 1253 1252 1251 1251 1250 1248 1248 1247 1246 1247 1247 1246 1247 1247 1246 1246 1246 1247 1247 1248 1250 1253 1257 1260 1263 1266 1269 1274 1279 1281 1282 1283 1283 1284 1288 1291 1295 1298 1301 1305 1308 1311 1314 1317 1320 1324 1328 1331 1335 1337 1338 1339 1340 1342 1343 1345 1346 1347 1348 1348 1348 1348 1348 1347 1347 1347 1347 1346 1344 1343 1342 1340 1338 1336 1333
1257 1255 1253 1253 1253 1251 1248 1247 1247 1246 1245 1244 1243 1243 1243 1242 1242 1241 1240 1241 1241 1240 1241 1241 1241 1241 1242 1242 1243 1245 1247 1249 1253 1256 1258 1261 1264 1268 1270 1271 1274 1276 1277 1279 1283 1288 1292 1295 1298 1301 1304 1307 1311 1314 1317 1321 1325 1328 1331 1333 1334 1336 1338 1339 1341 1342 1343 1344 1345 1344 1344 1344 1344 1344 1344 1343 1343 1342 1340 1339 1338 1336 1334 1332 1329
1249 1247 1245 1244 1244 1242 1239 1238 1238 1238 1237 1235 1234 1234 1234 1234 1234 1234 1234 1234 1234 1234 1235 1236 1236 1236 1237 1238 1239 1241 1244 1247 1250 1253 1256 1257 1260 1263 1264 1266 1269 1272 1273 1276 1281 1286 1290 1293 1296 1299 1302 1305 1308 1312 1315 1318 1321 1324 1326 1329 1331 1333 1335 1337 1338 1340 1340 1341 1341 1341 1341 1341 1341 1341 1340 1339 1339 1338 1337 1336 1334 1331 1330 1329 1326
1241 1239 1238 1238 1237 1235 1233 1231 1231 1231 1230 1228 1227 1227 1226 1226 1227 1227 1227 1228 1228 1229 1230 1231 1231 1230 1231 1232 1234 1237 1241 1245 1249 1251 1253 1254 1256 1258 1261 1263 1266 1268 1270 1274 1279 1284 1288 1292 1295 1298 1301 1303 1306 1309 1312 1315 1318 1321 1323 1326 1328 1330 1332 1334 1335 1336 1337 1337 1338 1337 1338 1338 1338 1337 1337 1336 1335 1334 1333 1332 1330 1327 1325 1324 1322
1234 1232 1232 1231 1230 1229 1227 1225 1225 1224 1223 1222 1221 1221 1221 1220 1220 1221 1221 1222 1223 1224 1224 1225 1225 1225 1226 1228 1231 1233 1237 1241 1244 1246 1248 1249 1251 1254 1256 1259 1263 1265 1268 1273 1278 1283 1287 1290 1294 1297 1300 1302 1305 1307 1310 1313 1315 1318 1321 1323 1326 1328 1330 1331 1332 1333 1333 1334 1334 1334 1334 1334 1334 1334 1333 1332 1331 1330 1329 1328 1327 1325 1321 1318 1316
1226 1224 1224 1224 1223 1221 1220 1219 1218 1217 1217 1216 1216 1216 1216 1215 1215 1216 1216 1217 1217 1218 1219 1219 1220 1220 1222 1224 1226 1229 1232 1235 1238 1241 1243 1245 1247 1249 1252 1254 1257 1261 1266 1271 1277 1281 1286 1290 1294 1297 1299 1301 1303 1305 1307 1310 1313 1316 1319 1322 1324 1326 1327 1328 1329 1330 1330 1330 1331 1331 1331 1331 1331 1330 1329 1329 1327 1326 1325 1324 1323 1321 1318 1314 1311
1220 1218 1217 1217 1216 1214 1213 1212 1211 1210 1209 1209 1209 1210 1210 1210 1211 1211 1212 1212 1212 1213 1214 1215 1215 1217 1219 1221 1223 1226 1229 1232 1235 1238 1240 1242 1243 1245 1247 1250 1254 1260 1266 1271 1275 1280 1285 1289 1293 1295 1298 1300 1302 1304 1306 1308 1311 1314 1317 1320 1322 1323 1325 1325 1326 1327 1327 1327 1328 1328 1328 1327 1327 1326 1325 1325 1324 1323 1322 1321 1318 1316 1314 1311 1308
1215 1213 1211 1210 1209 1208 1206 1205 1204 1203 1203 1203 1203 1203 1204 1205 1206 1207 1208 1208 1209 1210 1211 1212 1213 1215 1217 1219 1222 1225 1227 1229 1232 1234 1237 1239 1241 1243 1245 1249 1254 1260 1265 1269 1274 1279 1283 1287 1291 1294 1297 1300 1301 1303 1305 1307 1309 1312 1315 1317 1319 1321 1322 1323 1323 1324 1324 1325 1325 1325 1324 1323 1323 1322 1321 1321 1320 1319 1318 1316 1313 1311 1309 1306 1304
1210 1208 1206 1205 1203 1202 1201 1199 1199 1198 1198 1197 1197 1198 1199 1201 1202 1203 1204 1205 1206 1207 1209 1210 1212 1213 1215 1218 1221 1224 1225 1227 1229 1232 1234 1237 1240 1242 1245 1250 1255 1260 1265 1270 1275 1280 1284 1287 1290 1293 1296 1299 1301 1302 1304 1305 1308 1311 1313 1315 1317 1318 1319 1320 1320 1321 1322 1322 1322 1321 1321 1320 1319 1319 1318 1318 1317 1315 1313 1311 1308 1306 1305 1302 1300
1205 1203 1201 1199 1198 1197 1196 1194 1194 1194 1193 1193 1194 1195 1196 1197 1198 1199 1201 1202 1203 1205 1207 1208 1210 1211 1214 1216 1219 1221 1222 1225 1228 1231 1233 1237 1239 1242 1246 1250 1255 1261 1266 1272 1276 1280 1283 1286 1289 1291 1294 1297 1300 1302 1303 1304 1307 1309 1311 1313 1314 1315 1316 1317 1318 1318 1318 1319 1318 1318 1317 1317 1316 1315 1315 1314 1313 1311 1309 1307 1305 1302 1301 1298 1296
1201 1198 1197 1195 1193 1192 1191 1190 1190 1190 1190 1190 1191 1191 1192 1194 1195 1196 1198 1199 1201 1203 1205 1206 1208 1210 1212 1214 1217 1219 1221 1224 1228 1230 1234 1237 1240 1243 1247 1251 1257 1263 1268 1273 1276 1279 1281 1284 1287 1290 1293 1297 1299 1301 1302 1303 1305 1307 1309 1310 1312 1313 1313 1314 1315 1315 1315 1315 1315 1315 1314 1313 1313 1312 1311 1311 1310 1307 1305 1303 1301 1299 1297 1294 1292
1198 1195 1193 1192 1190 1188 1187 1187 1186 1186 1186 1187 1187 1188 1189 1191 1192 1194 1195 1197 1199 1201 1203 1204 1206 1209 1211 1213 1216 1218 1221 1225 1228 1231 1234 1238 1241 1245 1249 1254 1259 1265 1269 1272 1275 1277 1280 1283 1286 1290 1294 1297 1298 1300 1301 1302 1304 1305 1307 1308 1309 1310 1310 1311 1312 1312 1312 1312 1311 1312 1311 1310 1310 1309 1308 1307 1305 1303 1301 1299 1298 1296 1294 1291 1288
1195 1193 1192 1190 1188 1186 1185 1184 1184 1183 1184 1184 1185 1186 1187 1189 1190 1192 1194 1196 1198 1199 1201 1204 1206 1209 1211 1213 1216 1218 1222 1225 1229 1232 1236 1239 1243 1248 1252 1256 1261 1265 1268 1271 1274 1277 1280 1283 1287 1290 1294 1296 1298 1299 1300 1301 1302 1303 1304 1305 1306 1307 1308 1308 1309 1309 1310 1309 1309 1309 1308 1307 1306 1305 1304 1303 1301 1298 1297 1296 1294 1293 1290 1287 1284
1194 1193 1191 1189 1187 1186 1184 1183 1183 1183 1183 1183 1184 1186 1187 1189 1190 1192 1194 1195 1197 1199 1202 1204 1207 1209 1211 1214 1217 1220 1223 1226 1230 1234 1238 1242 1246 1250 1253 1257 1261 1264 1267 1270 1274 1277 1280 1284 1287 1291 1293 1295 1297 1298 1299 1300 1301 1301 1302 1303 1304 1304 1305 1306 1307 1307 1307 1307 1306 1306 1305 1304 1303 1302 1300 1298 1297 1295 1294 1293 1291 1289 1286 1283 1280
1195 1193 1191 1189 1188 1187 1185 1185 1184 1184 1184 1185 1186 1187 1188 1190 1191 1193 1195 1197 1199 1201 1203 1205 1208 1210 1213 1216 1219 1222 1225 1229 1232 1236 1240 1244 1248 1251 1254 1258 1261 1264 1268 1271 1274 1278 1281 1285 1287 1290 1293 1294 1296 1297 1297 1298 1299 1299 1300 1300 1301 1302 1303 1304 1304 1305 1305 1304 1304 1303 1301 1300 1299 1297 1296 1295 1295 1293 1292 1290 1287 1285 1282 1279 1276
1196 1194 1193 1191 1190 1189 1188 1187 1187 1186 1187 1187 1188 1189 1190 1192 1193 1195 1197 1199 1201 1203 1205 1207 1210 1213 1215 1218 1221 1224 1228 1231 1235 1238 1242 1246 1249 1252 1255 1258 1262 1265 1269 1272 1276 1279 1282 1285 1288 1290 1292 1293 1294 1295 1295 1296 1296 1297 1298 1299 1300 1300 1301 1302 1302 1302 1302 1301 1300 1299 1298 1296 1295 1294 1293 1293 1292 1291 1289 1287 1284 1281 1278 1275 1272
1198 1196 1195 1194 1193 1192 1191 1190 1190 1190 1190 1190 1191 1192 1193 1194 1196 1197 1199 1201 1203 1205 1208 1210 1213 1215 1218 1221 1224 1227 1230 1234 1237 1241 1244 1247 1251 1254 1257 1260 1263 1267 1270 1274 1277 1280 1283 1285 1287 1289 1290 1291 1292 1293 1293 1294 1295 1296 1297 1298 1298 1299 1299 1300 1300 1300 1299 1298 1297 1296 1294 1293 1293 1292 1291 1291 1289 1287 1284 1282 1280 1277 1274 1271 1268